• In Deutschland
  • Länderverzeichnis
  • Für 7 Tage
  • Wassertemperatur
  • Satellitenkarten
  • Wetterkarte
  • Widgets
  • user-avatar
    Anmelden

    Stündliche Wetter Calw

    Heute, 26 April, Donnerstag

    Zeit Temperatur Niederschläge Wind Luftdruck Luftfeuchtigkeit
    00:00 +10°C° 0,1 mm 3 m/S 723 mmHg 90%
    01:00 +10°C° 0,1 mm 3 m/S 723 mmHg 89%
    02:00 +9°C° 0 mm 3 m/S 723 mmHg 88%
    03:00 +9°C° 0 mm 2 m/S 723 mmHg 88%
    04:00 +8°C° 0 mm 2 m/S 724 mmHg 87%
    05:00 +8°C° 0 mm 3 m/S 724 mmHg 86%
    06:00 +8°C° 0 mm 3 m/S 724 mmHg 84%
    07:00 +7°C° 0 mm 4 m/S 724 mmHg 83%
    08:00 +8°C° 0 mm 4 m/S 725 mmHg 75%
    09:00 +9°C° 0 mm 5 m/S 725 mmHg 67%
    10:00 +10°C° 0 mm 6 m/S 726 mmHg 59%
    11:00 +12°C° 0 mm 5 m/S 725 mmHg 54%
    12:00 +13°C° 0 mm 5 m/S 725 mmHg 50%
    13:00 +13°C° 0 mm 5 m/S 725 mmHg 46%
    14:00 +13°C° 0 mm 5 m/S 725 mmHg 46%
    15:00 +13°C° 0 mm 4 m/S 725 mmHg 45%
    16:00 +13°C° 0 mm 4 m/S 724 mmHg 45%
    17:00 +12°C° 0 mm 3 m/S 724 mmHg 51%
    18:00 +12°C° 0 mm 2 m/S 724 mmHg 57%
    19:00 +10°C° 0 mm 2 m/S 724 mmHg 63%
    20:00 +10°C° 0 mm 1 m/S 724 mmHg 66%
    21:00 +9°C° 0 mm 1 m/S 725 mmHg 70%
    22:00 +7°C° 0 mm 1 m/S 725 mmHg 73%
    23:00 +7°C° 0 mm 1 m/S 724 mmHg 74%

    Morgen, 27 April, Freitag

    Zeit Temperatur Niederschläge Wind Luftdruck Luftfeuchtigkeit
    00:00 +7°C° 0 mm 1 m/S 724 mmHg 75%
    01:00 +7°C° 0 mm 1 m/S 724 mmHg 75%
    02:00 +7°C° 0 mm 1 m/S 723 mmHg 75%
    03:00 +7°C° 0 mm 1 m/S 722 mmHg 75%
    04:00 +6°C° 0 mm 1 m/S 722 mmHg 75%
    05:00 +7°C° 0 mm 1 m/S 721 mmHg 73%
    06:00 +8°C° 0 mm 1 m/S 721 mmHg 72%
    07:00 +9°C° 0 mm 1 m/S 721 mmHg 70%
    08:00 +10°C° 0 mm 2 m/S 720 mmHg 65%
    09:00 +13°C° 0 mm 2 m/S 720 mmHg 59%
    10:00 +15°C° 0 mm 2 m/S 719 mmHg 54%
    11:00 +17°C° 0 mm 2 m/S 719 mmHg 50%
    12:00 +19°C° 0 mm 2 m/S 719 mmHg 45%
    13:00 +20°C° 0 mm 2 m/S 718 mmHg 41%
    14:00 +21°C° 0 mm 3 m/S 718 mmHg 41%
    15:00 +21°C° 0 mm 3 m/S 718 mmHg 40%
    16:00 +21°C° 0 mm 3 m/S 718 mmHg 40%
    17:00 +19°C° 0 mm 3 m/S 718 mmHg 46%
    18:00 +18°C° 0 mm 3 m/S 718 mmHg 52%
    19:00 +16°C° 0 mm 3 m/S 718 mmHg 59%
    20:00 +14°C° 0 mm 2 m/S 718 mmHg 63%
    21:00 +13°C° 0 mm 2 m/S 719 mmHg 67%
    22:00 +12°C° 0 mm 2 m/S 719 mmHg 71%
    23:00 +10°C° 0 mm 2 m/S 720 mmHg 74%

    übermorgen, 28 April, Samstag

    Zeit Temperatur Niederschläge Wind Luftdruck Luftfeuchtigkeit
    00:00 +10°C° 0 mm 2 m/S 720 mmHg 77%
    01:00 +9°C° 0 mm 2 m/S 720 mmHg 80%
    02:00 +9°C° 0 mm 2 m/S 720 mmHg 83%
    03:00 +9°C° 0 mm 2 m/S 720 mmHg 85%
    04:00 +8°C° 0 mm 2 m/S 721 mmHg 87%
    05:00 +8°C° 0 mm 3 m/S 721 mmHg 85%
    06:00 +9°C° 0 mm 3 m/S 721 mmHg 82%
    07:00 +9°C° 0 mm 3 m/S 722 mmHg 80%
    08:00 +10°C° 0 mm 3 m/S 722 mmHg 73%
    09:00 +11°C° 0 mm 3 m/S 722 mmHg 65%
    10:00 +14°C° 0 mm 2 m/S 722 mmHg 58%
    11:00 +15°C° 0 mm 2 m/S 722 mmHg 54%
    12:00 +16°C° 0 mm 2 m/S 722 mmHg 51%
    13:00 +19°C° 0 mm 1 m/S 721 mmHg 48%
    14:00 +19°C° 0 mm 1 m/S 721 mmHg 49%
    15:00 +17°C° 0 mm 2 m/S 721 mmHg 51%
    16:00 +17°C° 0 mm 2 m/S 720 mmHg 53%
    17:00 +16°C° 0,1 mm 2 m/S 720 mmHg 59%
    18:00 +15°C° 0,1 mm 2 m/S 720 mmHg 65%
    19:00 +14°C° 0,1 mm 2 m/S 720 mmHg 71%
    20:00 +13°C° 0,1 mm 2 m/S 720 mmHg 74%
    21:00 +12°C° 0,1 mm 2 m/S 720 mmHg 77%
    22:00 +12°C° 0,1 mm 2 m/S 720 mmHg 80%
    23:00 +10°C° 0 mm 2 m/S 719 mmHg 82%

    29 April, Sonntag

    Zeit Temperatur Niederschläge Wind Luftdruck Luftfeuchtigkeit
    00:00 +10°C° 0 mm 2 m/S 719 mmHg 84%
    01:00 +9°C° 0 mm 2 m/S 718 mmHg 87%
    02:00 +9°C° 0 mm 2 m/S 717 mmHg 88%
    03:00 +9°C° 0 mm 2 m/S 717 mmHg 89%
    04:00 +8°C° 0 mm 2 m/S 716 mmHg 90%
    05:00 +9°C° 0 mm 2 m/S 716 mmHg 88%
    06:00 +10°C° 0 mm 2 m/S 716 mmHg 87%
    07:00 +12°C° 0 mm 2 m/S 716 mmHg 86%
    08:00 +14°C° 0 mm 2 m/S 716 mmHg 78%
    09:00 +17°C° 0 mm 2 m/S 715 mmHg 70%
    10:00 +19°C° 0 mm 2 m/S 715 mmHg 62%
    11:00 +21°C° 0 mm 2 m/S 715 mmHg 56%
    12:00 +23°C° 0 mm 2 m/S 714 mmHg 51%
    13:00 +25°C° 0 mm 2 m/S 714 mmHg 45%
    14:00 +25°C° 0 mm 2 m/S 713 mmHg 45%
    15:00 +25°C° 0 mm 3 m/S 713 mmHg 45%
    16:00 +26°C° 0 mm 3 m/S 712 mmHg 45%
    17:00 +22°C° 0,3 mm 3 m/S 712 mmHg 57%
    18:00 +19°C° 0,3 mm 4 m/S 712 mmHg 69%
    19:00 +15°C° 0,3 mm 4 m/S 712 mmHg 81%
    20:00 +14°C° 0,1 mm 4 m/S 713 mmHg 83%
    21:00 +12°C° 0,1 mm 3 m/S 713 mmHg 85%
    22:00 +11°C° 0,1 mm 3 m/S 714 mmHg 87%
    23:00 +11°C° 0,2 mm 3 m/S 714 mmHg 88%

    30 April, Montag

    Zeit Temperatur Niederschläge Wind Luftdruck Luftfeuchtigkeit
    00:00 +10°C° 0,2 mm 3 m/S 715 mmHg 89%
    01:00 +10°C° 0,2 mm 3 m/S 715 mmHg 90%
    02:00 +9°C° 0,3 mm 3 m/S 715 mmHg 90%
    03:00 +8°C° 0,3 mm 4 m/S 716 mmHg 90%
    04:00 +7°C° 0,3 mm 4 m/S 716 mmHg 90%
    05:00 +7°C° 0,3 mm 4 m/S 717 mmHg 89%
    06:00 +7°C° 0,3 mm 5 m/S 717 mmHg 89%
    07:00 +7°C° 0,3 mm 5 m/S 718 mmHg 88%
    08:00 +7°C° 0,1 mm 5 m/S 718 mmHg 83%
    09:00 +8°C° 0,1 mm 6 m/S 719 mmHg 78%
    10:00 +8°C° 0,1 mm 6 m/S 719 mmHg 73%
    11:00 +9°C° 0 mm 6 m/S 719 mmHg 68%
    12:00 +10°C° 0 mm 6 m/S 720 mmHg 62%
    13:00 +10°C° 0 mm 6 m/S 720 mmHg 56%
    14:00 +11°C° 0 mm 6 m/S 720 mmHg 54%
    15:00 +11°C° 0 mm 6 m/S 720 mmHg 51%
    16:00 +13°C° 0 mm 5 m/S 720 mmHg 49%
    17:00 +12°C° 0 mm 4 m/S 720 mmHg 54%
    18:00 +11°C° 0 mm 4 m/S 720 mmHg 59%
    19:00 +10°C° 0 mm 3 m/S 720 mmHg 65%
    20:00 +9°C° 0 mm 2 m/S 721 mmHg 69%
    21:00 +8°C° 0 mm 2 m/S 721 mmHg 73%
    22:00 +6°C° 0 mm 2 m/S 721 mmHg 76%
    23:00 +6°C° 0 mm 2 m/S 721 mmHg 78%

    1 Mai, Dienstag

    Zeit Temperatur Niederschläge Wind Luftdruck Luftfeuchtigkeit
    00:00 +6°C° 0 mm 2 m/S 721 mmHg 79%
    01:00 +7°C° 0 mm 1 m/S 722 mmHg 80%
    02:00 +6°C° 0 mm 1 m/S 722 mmHg 81%
    03:00 +6°C° 0 mm 1 m/S 722 mmHg 82%
    04:00 +6°C° 0 mm 1 m/S 722 mmHg 84%
    05:00 +7°C° 0 mm 1 m/S 722 mmHg 81%
    06:00 +8°C° 0 mm 1 m/S 722 mmHg 78%
    07:00 +8°C° 0 mm 0 m/S 722 mmHg 75%
    08:00 +11°C° 0 mm 1 m/S 722 mmHg 68%
    09:00 +13°C° 0 mm 1 m/S 722 mmHg 61%
    10:00 +14°C° 0 mm 1 m/S 722 mmHg 55%
    11:00 +15°C° 0 mm 1 m/S 722 mmHg 53%
    12:00 +15°C° 0 mm 1 m/S 722 mmHg 52%
    13:00 +16°C° 0 mm 2 m/S 721 mmHg 51%
    14:00 +15°C° 0,1 mm 2 m/S 721 mmHg 53%
    15:00 +15°C° 0,1 mm 2 m/S 721 mmHg 55%
    16:00 +14°C° 0,1 mm 3 m/S 721 mmHg 57%
    17:00 +14°C° 0 mm 2 m/S 721 mmHg 61%
    18:00 +13°C° 0 mm 2 m/S 721 mmHg 64%
    19:00 +12°C° 0 mm 2 m/S 721 mmHg 68%
    20:00 +10°C° 0 mm 2 m/S 721 mmHg 69%
    21:00 +9°C° 0 mm 2 m/S 721 mmHg 70%
    22:00 +8°C° 0 mm 2 m/S 722 mmHg 71%
    23:00 +7°C° 0 mm 2 m/S 721 mmHg 71%
    Mehr zeigen